Temperature
20 19 20 19 19 19 19 19 19 19 19 19 19 19 19 19 19 19 19 18 18 18 18 18 18 18 18 18 18 18 18 18 18 18 18 18 18 18 18 18 17 17 18
20 19 19 19 19 19 19 19 19 19 19 19 19 19 19 19 19 19 19 18 18 18 18 18 18 18 18 18 18 18 18 18 18 18 18 18 18 18 18 17 17 17 17
20 19 19 19 19 19 19 19 19 19 19 19 19 19 19 19 19 19 18 18 18 18 18 18 18 18 18 18 18 18 18 18 18 18 18 17 17 17 17 17 17 17 17
20 19 19 19 19 19 19 19 19 19 19 19 19 19 19 19 19 19 19 18 18 18 18 18 18 18 18 18 18 18 18 18 18 18 17 17 17 17 17 17 17 17 17
19 19 19 19 19 19 19 19 19 19 19 19 19 19 19 19 19 19 19 18 18 18 18 18 18 18 18 18 18 18 18 18 18 17 17 17 17 17 17 17 17 17 17
20 19 19 19 19 19 19 19 19 19 19 19 19 19 19 19 18 18 18 18 18 18 18 18 18 18 18 18 18 18 18 18 18 17 17 17 17 17 17 17 17 17 17
20 19 19 19 19 19 19 19 19 19 19 19 19 19 19 18 18 18 18 18 18 18 18 18 18 18 18 18 18 18 18 18 17 17 17 17 17 17 17 17 17 17 17
20 20 19 19 19 19 19 19 19 19 19 19 19 19 19 18 18 18 18 18 18 18 18 18 18 18 18 18 18 18 18 18 17 18 17 17 17 17 17 17 17 17 17
20 20 19 19 19 19 19 19 19 19 19 19 19 19 19 19 18 18 18 18 18 18 18 18 18 18 18 18 18 18 18 18 18 17 17 17 17 17 17 17 17 17 17
20 20 19 19 19 19 19 19 19 19 19 19 19 19 19 18 18 18 18 18 18 18 18 18 18 18 18 18 18 18 18 18 18 18 17 17 17 17 17 17 17 17 17
19 19 19 19 19 19 19 19 19 19 19 19 19 19 18 18 18 18 18 18 18 18 18 18 18 18 18 18 18 18 18 18 18 18 17 17 17 17 17 17 17 17 17
19 19 19 19 19 19 19 19 19 19 18 18 18 18 18 18 18 18 18 18 18 18 18 18 18 18 18 17 18 18 18 18 18 17 17 17 17 17 17 17 17 17 17
19 19 19 19 18 19 19 19 19 18 18 18 18 18 18 18 18 18 18 18 18 18 18 18 17 18 17 17 17 18 18 18 18 17 17 17 17 17 17 17 17 17 17
19 19 19 19 18 18 18 19 19 19 18 18 18 18 18 18 18 18 18 18 18 18 18 18 17 17 17 17 17 17 17 17 17 17 17 17 17 17 17 17 17 17 17
19 19 19 18 18 18 18 18 18 18 18 18 18 18 18 18 18 18 18 18 18 18 18 18 17 17 17 17 17 17 17 17 17 17 17 17 17 17 17 17 17 17 17
19 19 19 18 18 18 18 18 18 18 18 18 18 18 18 18 18 18 18 18 18 18 18 17 17 17 17 17 17 17 17 17 17 17 17 17 17 17 17 17 17 17 17
19 19 19 18 18 18 18 18 18 18 18 18 18 18 18 18 18 18 18 18 18 18 17 17 17 17 17 17 17 17 17 17 17 17 17 17 17 17 17 17 17 17 17
19 19 18 19 18 18 18 18 18 18 18 18 18 18 18 18 18 18 18 18 18 17 17 17 17 17 17 17 17 17 17 17 17 17 17 17 17 17 17 17 17 17 17
19 19 18 18 18 18 18 18 18 18 18 18 18 18 18 18 18 18 18 18 18 18 17 17 17 17 17 17 17 17 17 17 17 17 17 17 17 17 17 17 17 17 17
19 18 18 18 18 18 18 18 18 18 18 18 18 18 18 18 18 18 18 18 18 17 17 17 17 17 17 17 18 17 17 17 17 17 17 17 17 17 17 17 17 17 17
19 19 18 18 18 18 18 18 18 18 18 18 18 18 18 18 18 18 18 18 18 17 17 17 17 17 17 17 17 17 17 17 17 17 17 17 17 17 16 16 16 16 16
19 19 19 19 18 18 18 18 18 18 18 18 18 18 18 18 18 18 18 18 17 18 17 17 17 17 17 17 18 18 18 18 17 17 17 17 17 17 17 16 16 16 16
19 19 19 19 19 19 19 18 18 18 18 18 18 18 18 18 18 18 18 18 18 17 18 17 17 17 17 17 18 18 19 19 18 17 17 17 17 17 17 17 16 16 16
20 20 19 19 19 19 19 18 18 18 18 18 18 18 18 18 18 18 18 18 18 17 18 17 17 17 17 18 17 18 18 18 18 18 17 17 17 16 16 16 16 16 16
20 20 19 19 19 19 19 19 18 18 18 18 18 18 18 18 18 17 18 18 17 18 18 18 18 17 17 17 18 18 18 18 18 18 18 17 17 17 17 16 16 16 16
20 20 20 19 20 19 19 19 19 18 18 18 18 18 18 18 18 17 17 17 17 18 17 17 18 17 17 17 18 18 18 18 18 18 18 17 17 17 16 16 16 16 16
Wind_Speed
4 5 8 7 8 9 9 10 10 9 10 9 9 9 9 9 9 9 10 10 11 12 12 13 13 13 13 13 13 13 13 13 12 12 13 14 14 15 15 14 14 13 15
4 6 9 7 8 9 9 10 10 10 10 9 9 9 9 9 9 9 10 11 11 12 12 12 12 13 13 13 13 13 12 12 12 12 12 13 13 14 14 12 9 12 15
5 7 9 8 8 9 9 9 9 9 9 9 8 9 9 9 9 9 10 11 11 12 11 12 12 12 13 13 12 12 11 12 11 11 10 11 13 15 14 13 13 14 14
5 8 9 9 9 9 9 9 9 9 9 8 8 9 9 9 9 10 11 11 11 11 11 11 11 12 12 12 12 11 11 11 11 9 8 9 12 15 14 13 13 13 13
7 8 11 10 9 9 8 8 8 8 8 8 8 9 9 9 9 10 11 11 11 11 11 11 11 11 11 11 11 10 10 10 10 8 8 8 10 14 13 13 12 12 12
8 9 11 10 9 9 8 8 8 8 8 8 8 9 9 9 10 11 11 10 10 11 10 10 11 10 10 10 10 10 9 9 9 7 7 8 10 13 12 12 12 12 12
8 9 11 10 9 9 8 8 7 7 7 7 8 8 8 9 10 11 11 10 11 11 10 10 10 9 9 9 9 8 8 6 5 7 6 7 10 12 11 11 11 11 12
8 8 10 11 9 8 8 7 7 7 7 7 7 7 8 9 10 10 10 10 10 10 9 9 9 8 8 8 8 7 6 4 6 7 6 8 11 10 10 10 11 11 11
7 7 8 8 9 9 8 7 6 6 7 6 7 6 7 8 9 9 9 9 9 9 9 8 8 7 7 7 7 6 5 3 3 5 6 8 11 9 10 10 10 10 10
6 6 5 7 7 6 7 8 6 6 6 6 6 6 5 8 9 8 9 9 8 8 8 7 7 7 7 7 6 6 5 4 4 5 5 9 12 9 8 9 9 9 10
6 5 4 5 5 5 5 7 7 7 6 6 6 6 5 5 6 8 8 8 8 7 7 6 7 7 6 7 6 5 4 3 5 4 5 11 10 9 8 7 8 9 9
5 5 4 4 4 4 4 4 4 4 5 4 4 4 4 4 4 6 10 8 7 8 8 7 6 6 4 5 6 5 3 3 4 5 7 10 9 8 8 7 7 8 8
5 5 4 4 3 3 3 3 3 3 3 4 4 3 3 3 4 4 5 7 7 7 6 7 6 4 4 3 3 3 2 2 2 4 7 9 7 7 7 6 6 7 7
5 5 4 4 3 2 2 2 2 2 3 3 4 3 3 2 2 3 2 3 4 4 4 4 4 3 4 3 2 2 2 2 3 4 7 8 7 6 6 6 6 7 7
4 4 4 3 3 2 2 0 2 2 2 4 3 3 2 2 2 3 3 2 3 4 4 3 4 3 3 3 2 2 2 2 2 3 6 8 7 6 5 5 6 6 7
3 3 3 2 3 2 2 1 1 1 2 2 3 3 3 2 2 2 3 2 2 3 3 3 4 3 3 2 2 2 2 2 2 1 3 6 7 6 5 5 5 6 7
3 3 2 2 2 2 1 1 1 2 2 2 2 3 3 3 2 2 2 2 2 3 3 3 3 3 3 3 3 3 2 2 2 1 1 2 5 7 6 5 5 6 7
3 3 2 2 2 2 1 0 1 1 2 2 2 3 3 3 2 2 2 2 2 3 3 3 2 2 2 2 2 2 2 2 2 2 2 2 2 3 6 6 5 5 7
3 3 2 2 2 2 1 1 1 2 1 1 2 2 3 3 2 2 2 2 2 2 2 2 3 2 2 2 2 2 2 2 2 2 2 1 2 2 3 7 7 6 6
4 3 2 3 2 2 1 1 2 1 1 1 2 2 2 2 2 2 2 2 1 2 2 3 3 2 2 2 1 2 2 2 2 2 1 2 2 2 3 4 6 7 7
4 4 3 3 2 2 1 1 1 2 1 2 2 2 2 2 2 2 2 2 1 2 2 2 2 3 2 2 2 2 2 2 2 1 1 1 2 2 3 3 3 4 6
5 4 4 4 3 2 2 1 1 0 1 2 2 2 2 3 3 3 2 2 2 2 2 2 2 2 2 2 2 2 2 3 2 2 2 1 1 2 3 4 3 3 3
6 5 4 4 4 3 2 2 2 2 1 2 2 2 2 3 3 2 2 1 1 2 2 2 2 2 2 2 1 1 1 1 2 3 2 2 1 1 2 3 3 3 3
7 6 5 4 4 4 4 3 2 2 1 1 1 2 2 2 2 3 2 2 2 1 2 3 2 2 2 2 1 1 2 1 1 1 2 2 2 1 1 1 2 3 3
7 6 6 5 5 4 4 4 3 3 2 1 1 2 2 3 2 3 3 2 2 2 2 1 2 2 2 2 1 1 1 1 2 1 1 1 2 1 1 2 2 2 3
7 7 6 6 6 5 5 5 5 4 3 2 2 2 2 2 3 3 3 2 2 2 2 2 2 3 2 1 1 1 1 1 1 1 1 2 2 1 1 1 2 2 3
Wind_Direction
82 93 107 112 113 109 108 109 109 108 110 108 109 112 112 111 110 112 113 112 115 118 121 124 127 129 127 126 125 123 124 124 123 126 127 127 132 137 139 143 148 135 128
97 109 117 115 117 112 108 108 106 105 105 105 106 107 105 107 107 109 115 115 114 115 118 122 123 127 126 125 124 123 126 128 129 132 133 131 134 139 139 139 133 126 135
109 122 128 119 118 111 107 106 104 103 102 100 103 105 103 100 103 108 115 115 112 112 114 116 120 122 123 122 121 122 125 128 133 139 149 137 131 136 138 137 134 134 138
113 122 118 116 118 113 109 106 104 103 100 96 95 97 97 93 93 102 112 113 112 112 113 115 118 119 121 122 121 120 124 129 137 155 143 127 128 129 134 136 137 137 140
106 112 115 119 118 115 111 107 105 103 99 96 93 93 92 91 92 98 108 112 112 112 112 114 116 118 122 123 123 124 127 134 149 160 126 126 126 132 138 139 140 141 144
113 113 113 118 117 115 113 108 102 99 97 96 96 93 91 93 95 101 107 110 111 112 110 112 113 116 120 123 124 128 133 146 166 135 128 131 127 136 143 145 145 146 149
109 110 112 117 121 119 111 110 109 103 101 99 101 100 100 100 101 103 104 103 105 109 109 109 111 112 115 119 122 128 136 161 148 122 125 125 123 136 144 148 148 149 152
106 109 113 127 128 123 119 116 113 112 110 108 107 105 108 107 105 107 106 105 106 106 106 108 111 112 119 119 122 128 136 175 143 130 123 121 121 138 145 148 151 152 154
100 105 109 119 126 135 133 120 114 115 115 114 113 110 113 116 115 113 112 112 112 110 108 108 110 114 119 121 121 128 138 173 144 128 129 123 127 137 148 150 153 155 158
93 97 108 109 110 118 120 123 127 125 124 131 130 125 133 133 130 128 128 121 118 115 114 115 119 123 126 128 124 128 148 188 134 130 126 124 132 141 150 153 155 158 159
88 89 98 101 104 114 117 125 137 139 138 152 143 148 159 136 129 133 117 122 123 118 116 117 128 128 139 140 131 140 173 148 122 115 113 119 138 146 152 157 163 168 166
96 94 93 90 98 112 113 120 126 123 125 126 119 133 137 128 123 120 122 127 129 132 133 126 128 143 165 139 141 171 160 138 130 122 118 128 144 152 158 163 168 170 172
103 101 95 93 95 97 103 114 112 116 120 127 122 126 120 132 132 127 133 138 140 149 140 134 145 138 125 110 119 138 118 124 117 112 118 133 150 161 164 166 167 171 174
102 99 94 95 84 75 83 111 127 124 126 124 122 118 116 115 113 111 118 113 122 123 119 124 123 124 112 110 108 103 119 127 114 108 119 138 156 165 171 178 173 168 171
108 104 96 89 94 99 107 111 109 124 130 124 122 121 119 128 119 115 106 110 116 121 131 128 125 120 119 131 127 111 94 99 100 121 124 138 154 164 176 187 182 177 178
117 108 105 100 107 111 119 118 98 123 130 127 121 117 131 132 127 125 130 124 124 127 122 131 126 128 126 118 122 121 117 101 97 119 138 143 154 164 176 193 191 183 179
131 125 120 118 111 113 124 142 135 124 120 130 131 132 139 136 135 142 131 138 123 126 132 138 131 134 142 136 124 118 116 100 100 107 122 142 151 160 169 181 184 180 177
134 138 146 132 124 125 117 164 136 116 119 125 127 129 132 130 141 150 134 126 128 138 130 127 145 128 118 124 126 137 132 129 133 134 132 149 153 154 156 164 169 168 172
142 150 157 149 142 146 158 168 160 138 127 127 122 117 125 138 142 143 129 114 139 115 118 130 111 118 124 121 140 143 144 144 144 134 116 123 137 159 146 145 159 161 167
149 156 167 167 154 163 159 153 154 132 139 130 122 110 125 144 144 142 138 116 120 121 125 123 126 132 141 139 125 111 119 114 130 123 138 124 133 146 144 145 156 158 166
164 169 175 185 165 164 159 168 153 136 135 128 125 119 141 142 133 138 107 114 119 119 125 140 145 150 144 138 137 127 129 120 113 129 134 129 126 129 136 146 156 158 155
176 180 181 191 188 185 162 158 149 111 129 120 113 123 137 141 144 151 148 156 134 150 159 153 156 163 155 159 176 176 156 147 138 118 143 153 139 142 147 147 147 158 172
186 189 191 191 189 190 178 169 151 153 161 136 146 137 138 148 161 166 164 171 170 190 158 166 176 176 171 171 212 273 255 123 136 132 132 137 138 155 170 142 148 147 165
191 189 191 189 190 186 184 190 192 174 159 140 153 130 137 145 163 170 172 183 207 196 171 199 169 194 207 190 174 279 324 34 244 143 140 136 149 168 166 167 150 153 165
191 189 185 186 189 187 188 185 200 206 198 184 155 143 163 155 168 180 181 193 208 213 195 210 188 222 226 245 218 207 189 194 234 212 151 154 154 151 158 172 168 162 165
190 190 187 185 189 189 193 196 202 202 205 205 190 174 185 169 164 170 190 203 218 224 211 211 209 206 225 260 277 240 226 224 216 164 181 198 153 131 148 172 190 178 171
Height
1514 1512 1511 1511 1511 1511 1511 1512 1512 1512 1512 1513 1513 1514 1514 1514 1514 1515 1515 1516 1516 1517 1519 1520 1522 1524 1525 1527 1528 1529 1531 1531 1532 1533 1534 1535 1536 1537 1539 1541 1544 1546 1547
1515 1514 1513 1513 1513 1513 1514 1514 1514 1514 1515 1515 1515 1515 1515 1515 1516 1516 1517 1517 1518 1519 1520 1522 1523 1525 1526 1528 1529 1530 1532 1533 1533 1534 1535 1535 1535 1536 1539 1542 1544 1547 1548
1515 1515 1515 1514 1515 1515 1516 1516 1516 1517 1517 1517 1517 1517 1517 1517 1517 1517 1518 1519 1520 1521 1523 1524 1525 1526 1528 1529 1530 1532 1533 1534 1535 1536 1537 1537 1535 1536 1540 1543 1545 1547 1549
1517 1517 1516 1516 1516 1517 1518 1518 1519 1519 1519 1519 1519 1519 1519 1519 1519 1518 1519 1521 1522 1523 1524 1525 1526 1528 1529 1530 1532 1533 1534 1535 1536 1537 1539 1540 1539 1540 1542 1544 1546 1548 1550
1518 1518 1518 1518 1518 1519 1519 1520 1520 1521 1521 1521 1521 1521 1522 1521 1521 1521 1522 1523 1524 1525 1526 1527 1528 1529 1530 1531 1533 1534 1536 1536 1537 1539 1541 1542 1542 1542 1544 1546 1547 1549 1551
1519 1520 1520 1520 1520 1521 1521 1522 1522 1523 1523 1523 1523 1523 1523 1523 1523 1523 1524 1526 1527 1527 1528 1529 1530 1531 1531 1532 1534 1535 1537 1538 1540 1542 1542 1543 1544 1544 1545 1546 1548 1550 1552
1521 1522 1522 1521 1522 1522 1523 1524 1524 1524 1525 1525 1525 1525 1526 1526 1526 1527 1527 1528 1529 1529 1530 1531 1531 1532 1533 1534 1535 1537 1538 1539 1542 1543 1543 1544 1544 1545 1546 1547 1549 1550 1552
1523 1523 1523 1523 1524 1524 1525 1525 1526 1526 1526 1527 1527 1528 1528 1528 1529 1529 1529 1530 1531 1531 1532 1533 1533 1534 1535 1536 1537 1538 1539 1541 1543 1544 1545 1545 1544 1545 1547 1548 1549 1551 1552
1524 1525 1526 1526 1526 1526 1527 1527 1527 1528 1528 1528 1529 1529 1530 1530 1531 1531 1531 1532 1532 1533 1534 1534 1535 1536 1537 1538 1539 1540 1541 1542 1544 1545 1546 1546 1545 1546 1547 1548 1550 1552 1553
1526 1526 1527 1528 1528 1528 1529 1529 1529 1529 1529 1530 1530 1531 1531 1532 1532 1533 1533 1533 1534 1535 1535 1536 1537 1538 1538 1539 1540 1541 1542 1543 1545 1546 1546 1546 1546 1547 1548 1549 1551 1552 1553
1527 1528 1528 1529 1529 1530 1531 1530 1530 1530 1530 1531 1532 1532 1533 1534 1535 1535 1535 1535 1536 1536 1536 1537 1538 1539 1540 1541 1541 1542 1543 1545 1546 1547 1547 1546 1547 1547 1549 1550 1551 1552 1553
1528 1529 1530 1530 1530 1531 1531 1531 1532 1532 1532 1532 1533 1533 1534 1534 1535 1536 1536 1536 1537 1537 1538 1538 1539 1540 1541 1543 1543 1543 1545 1546 1547 1547 1547 1547 1547 1548 1549 1550 1551 1552 1553
1530 1530 1531 1531 1531 1531 1532 1532 1533 1533 1533 1534 1534 1534 1534 1535 1536 1537 1537 1538 1538 1539 1540 1540 1541 1542 1543 1543 1544 1545 1546 1546 1547 1548 1547 1547 1548 1548 1549 1550 1551 1552 1553
1531 1531 1531 1531 1531 1531 1532 1533 1533 1534 1534 1535 1534 1534 1535 1536 1537 1537 1538 1539 1539 1540 1540 1541 1542 1543 1543 1544 1544 1545 1546 1546 1547 1548 1547 1547 1548 1548 1549 1550 1550 1551 1552
1532 1532 1532 1532 1531 1531 1531 1532 1534 1534 1535 1535 1535 1535 1535 1536 1537 1538 1538 1539 1540 1540 1541 1542 1542 1543 1544 1544 1545 1546 1546 1547 1548 1548 1548 1547 1548 1548 1549 1549 1550 1551 1552
1533 1533 1533 1532 1532 1531 1532 1532 1533 1534 1534 1536 1536 1536 1536 1537 1537 1538 1538 1539 1540 1541 1541 1542 1543 1543 1544 1544 1545 1545 1546 1547 1547 1547 1548 1548 1548 1548 1548 1549 1549 1550 1551
1534 1534 1533 1533 1533 1532 1532 1533 1534 1534 1535 1535 1536 1536 1536 1537 1537 1538 1539 1539 1540 1540 1541 1542 1543 1543 1544 1545 1545 1546 1546 1547 1547 1547 1547 1548 1548 1548 1548 1548 1549 1549 1550
1534 1534 1534 1534 1533 1533 1532 1532 1534 1534 1535 1535 1536 1536 1536 1537 1537 1538 1539 1540 1540 1540 1541 1542 1543 1544 1544 1545 1545 1546 1546 1546 1546 1547 1547 1547 1548 1548 1547 1547 1547 1548 1549
1534 1534 1534 1534 1534 1533 1533 1533 1533 1534 1534 1535 1536 1536 1536 1537 1537 1538 1539 1539 1540 1541 1541 1542 1543 1543 1544 1545 1546 1546 1546 1547 1547 1547 1547 1547 1547 1547 1547 1546 1546 1547 1548
1534 1534 1534 1534 1534 1534 1534 1534 1534 1534 1535 1535 1536 1536 1537 1537 1538 1538 1539 1539 1540 1541 1541 1542 1542 1543 1544 1545 1546 1546 1547 1547 1547 1547 1547 1547 1547 1547 1547 1547 1547 1547 1547
1534 1534 1534 1534 1534 1534 1534 1535 1535 1535 1536 1536 1537 1536 1537 1537 1538 1538 1539 1539 1540 1541 1541 1542 1543 1543 1544 1545 1546 1546 1546 1546 1546 1546 1546 1547 1547 1547 1546 1546 1547 1547 1547
1534 1534 1534 1534 1534 1535 1535 1535 1535 1536 1537 1537 1537 1537 1537 1537 1538 1539 1539 1540 1540 1541 1541 1542 1542 1543 1544 1545 1546 1546 1546 1547 1546 1546 1546 1546 1546 1547 1546 1546 1546 1546 1547
1533 1534 1534 1534 1534 1535 1535 1536 1536 1536 1537 1537 1537 1537 1537 1538 1538 1539 1539 1540 1540 1541 1541 1542 1542 1543 1544 1545 1545 1546 1546 1545 1546 1546 1545 1546 1545 1546 1546 1546 1546 1545 1546
1533 1533 1533 1534 1534 1534 1535 1536 1536 1537 1537 1537 1537 1538 1538 1538 1538 1539 1539 1539 1540 1541 1541 1542 1542 1543 1543 1544 1544 1544 1545 1545 1545 1546 1546 1545 1545 1545 1545 1546 1545 1545 1545
1531 1532 1532 1533 1533 1534 1535 1535 1536 1536 1537 1538 1537 1537 1538 1538 1538 1539 1539 1539 1539 1540 1540 1541 1541 1542 1543 1544 1544 1544 1544 1544 1544 1545 1545 1545 1545 1545 1544 1544 1545 1545 1544
1530 1531 1531 1531 1532 1533 1534 1534 1535 1536 1536 1537 1537 1537 1538 1538 1538 1539 1539 1539 1539 1540 1540 1540 1541 1541 1542 1542 1543 1543 1544 1544 1544 1544 1544 1544 1544 1544 1544 1544 1544 1544 1543